• In Uzbekistan
  • List of Countries
  • For 7 days
  • Water Temperature
  • Satellite Maps
  • Weather Map
  • Weather Widgets
  • user-avatar
    Login

    Hourly Weather Brasília

    Today, 16 December, Saturday

    Time Temperature Precipitation Wind Pressure Humidity
    00:00 +19°C° 0.2 mm 1 mps 665 mmHg 96%
    01:00 +18°C° 0.2 mm 1 mps 665 mmHg 96%
    02:00 +18°C° 0.2 mm 1 mps 664 mmHg 96%
    03:00 +18°C° 0.2 mm 1 mps 664 mmHg 96%
    04:00 +18°C° 0 mm 1 mps 664 mmHg 96%
    05:00 +18°C° 0 mm 1 mps 665 mmHg 96%
    06:00 +18°C° 0 mm 1 mps 665 mmHg 96%
    07:00 +18°C° 0.3 mm 2 mps 665 mmHg 91%
    08:00 +20°C° 0.3 mm 2 mps 666 mmHg 87%
    09:00 +22°C° 0.3 mm 3 mps 667 mmHg 82%
    10:00 +24°C° 0.6 mm 3 mps 667 mmHg 78%
    11:00 +25°C° 0.6 mm 3 mps 667 mmHg 75%
    12:00 +26°C° 0.6 mm 3 mps 667 mmHg 71%
    13:00 +26°C° 1.5 mm 2 mps 666 mmHg 72%
    14:00 +26°C° 1.5 mm 2 mps 665 mmHg 72%
    15:00 +26°C° 1.5 mm 2 mps 665 mmHg 73%
    16:00 +25°C° 2.6 mm 2 mps 664 mmHg 79%
    17:00 +23°C° 2.6 mm 2 mps 664 mmHg 85%
    18:00 +21°C° 2.6 mm 2 mps 664 mmHg 90%
    19:00 +20°C° 1.8 mm 2 mps 664 mmHg 91%
    20:00 +20°C° 1.8 mm 2 mps 664 mmHg 92%
    21:00 +19°C° 1.8 mm 2 mps 665 mmHg 92%
    22:00 +19°C° 0 mm 2 mps 665 mmHg 93%
    23:00 +19°C° 0 mm 2 mps 665 mmHg 93%

    Tomorrow, 17 December, Sunday

    Time Temperature Precipitation Wind Pressure Humidity
    00:00 +19°C° 0 mm 1 mps 665 mmHg 93%
    01:00 +19°C° 0.2 mm 1 mps 665 mmHg 93%
    02:00 +19°C° 0.2 mm 1 mps 664 mmHg 94%
    03:00 +18°C° 0.2 mm 2 mps 664 mmHg 94%
    04:00 +18°C° 0.2 mm 2 mps 664 mmHg 94%
    05:00 +18°C° 0.2 mm 2 mps 665 mmHg 95%
    06:00 +18°C° 0.2 mm 2 mps 665 mmHg 95%
    07:00 +19°C° 0.1 mm 3 mps 666 mmHg 92%
    08:00 +19°C° 0.1 mm 3 mps 666 mmHg 89%
    09:00 +20°C° 0.1 mm 3 mps 667 mmHg 87%
    10:00 +21°C° 0.1 mm 3 mps 667 mmHg 82%
    11:00 +24°C° 0.1 mm 3 mps 667 mmHg 77%
    12:00 +25°C° 0.1 mm 3 mps 667 mmHg 72%
    13:00 +25°C° 0.3 mm 3 mps 667 mmHg 71%
    14:00 +26°C° 0.3 mm 3 mps 666 mmHg 70%
    15:00 +26°C° 0.3 mm 2 mps 666 mmHg 69%
    16:00 +25°C° 0.8 mm 2 mps 666 mmHg 74%
    17:00 +24°C° 0.8 mm 2 mps 665 mmHg 80%
    18:00 +23°C° 0.8 mm 2 mps 665 mmHg 86%
    19:00 +21°C° 1.5 mm 2 mps 666 mmHg 88%
    20:00 +20°C° 1.5 mm 2 mps 666 mmHg 90%
    21:00 +19°C° 1.5 mm 2 mps 666 mmHg 92%
    22:00 +19°C° 0.6 mm 2 mps 667 mmHg 92%
    23:00 +19°C° 0.6 mm 2 mps 667 mmHg 92%

    Day after tomorrow, 18 December, Monday

    Time Temperature Precipitation Wind Pressure Humidity
    00:00 +19°C° 0.6 mm 2 mps 667 mmHg 93%
    01:00 +18°C° 0.7 mm 2 mps 666 mmHg 93%
    02:00 +18°C° 0.7 mm 2 mps 666 mmHg 93%
    03:00 +18°C° 0.7 mm 2 mps 665 mmHg 93%
    04:00 +18°C° 0 mm 2 mps 665 mmHg 94%
    05:00 +19°C° 0 mm 1 mps 665 mmHg 94%
    06:00 +19°C° 0 mm 1 mps 666 mmHg 94%
    07:00 +19°C° 0 mm 2 mps 666 mmHg 89%
    08:00 +21°C° 0 mm 3 mps 667 mmHg 84%
    09:00 +22°C° 0 mm 4 mps 668 mmHg 79%
    10:00 +23°C° 0.1 mm 4 mps 668 mmHg 75%
    11:00 +25°C° 0.1 mm 4 mps 668 mmHg 71%
    12:00 +26°C° 0.1 mm 4 mps 668 mmHg 67%
    13:00 +27°C° 0.1 mm 4 mps 667 mmHg 65%
    14:00 +27°C° 0.1 mm 3 mps 667 mmHg 64%
    15:00 +27°C° 0.1 mm 3 mps 666 mmHg 62%
    16:00 +26°C° 0 mm 3 mps 666 mmHg 67%
    17:00 +25°C° 0 mm 3 mps 665 mmHg 73%
    18:00 +24°C° 0 mm 2 mps 665 mmHg 78%
    19:00 +23°C° 0 mm 2 mps 666 mmHg 82%
    20:00 +21°C° 0 mm 2 mps 666 mmHg 87%
    21:00 +20°C° 0 mm 2 mps 666 mmHg 91%
    22:00 +19°C° 0 mm 2 mps 666 mmHg 92%
    23:00 +19°C° 0 mm 2 mps 666 mmHg 93%

    19 December, Tuesday

    Time Temperature Precipitation Wind Pressure Humidity
    00:00 +19°C° 0 mm 2 mps 666 mmHg 94%
    01:00 +19°C° 0 mm 2 mps 666 mmHg 93%
    02:00 +18°C° 0 mm 2 mps 666 mmHg 93%
    03:00 +18°C° 0 mm 2 mps 665 mmHg 92%
    04:00 +18°C° 0 mm 2 mps 666 mmHg 93%
    05:00 +18°C° 0 mm 2 mps 666 mmHg 93%
    06:00 +18°C° 0 mm 2 mps 666 mmHg 93%
    07:00 +20°C° 0 mm 3 mps 667 mmHg 88%
    08:00 +21°C° 0 mm 3 mps 668 mmHg 84%
    09:00 +23°C° 0 mm 4 mps 669 mmHg 79%
    10:00 +25°C° 0.4 mm 4 mps 668 mmHg 76%
    11:00 +26°C° 0.4 mm 4 mps 668 mmHg 74%
    12:00 +27°C° 0.4 mm 4 mps 668 mmHg 71%
    13:00 +27°C° 0.5 mm 4 mps 667 mmHg 69%
    14:00 +27°C° 0.5 mm 3 mps 667 mmHg 67%
    15:00 +28°C° 0.5 mm 3 mps 666 mmHg 65%
    16:00 +27°C° 0.2 mm 3 mps 666 mmHg 70%
    17:00 +26°C° 0.2 mm 3 mps 665 mmHg 75%
    18:00 +25°C° 0.2 mm 2 mps 665 mmHg 80%
    19:00 +23°C° 0.1 mm 2 mps 665 mmHg 83%
    20:00 +21°C° 0.1 mm 2 mps 666 mmHg 87%
    21:00 +20°C° 0.1 mm 2 mps 666 mmHg 90%
    22:00 +20°C° 0 mm 2 mps 666 mmHg 90%
    23:00 +19°C° 0 mm 2 mps 666 mmHg 91%

    20 December, Wednesday

    Time Temperature Precipitation Wind Pressure Humidity
    00:00 +19°C° 0 mm 3 mps 666 mmHg 91%
    01:00 +18°C° 0 mm 2 mps 665 mmHg 91%
    02:00 +18°C° 0 mm 2 mps 665 mmHg 92%
    03:00 +17°C° 0 mm 2 mps 664 mmHg 92%
    04:00 +17°C° 0 mm 2 mps 665 mmHg 91%
    05:00 +17°C° 0 mm 2 mps 665 mmHg 91%
    06:00 +17°C° 0 mm 2 mps 665 mmHg 90%
    07:00 +19°C° 0 mm 3 mps 666 mmHg 85%
    08:00 +21°C° 0 mm 3 mps 667 mmHg 80%
    09:00 +23°C° 0 mm 4 mps 668 mmHg 75%
    10:00 +25°C° 0 mm 3 mps 667 mmHg 70%
    11:00 +26°C° 0 mm 3 mps 667 mmHg 64%
    12:00 +27°C° 0 mm 3 mps 667 mmHg 59%
    13:00 +28°C° 0 mm 2 mps 667 mmHg 57%
    14:00 +28°C° 0 mm 2 mps 666 mmHg 55%
    15:00 +28°C° 0 mm 2 mps 665 mmHg 53%
    16:00 +27°C° 0 mm 2 mps 665 mmHg 60%
    17:00 +26°C° 0 mm 2 mps 664 mmHg 66%
    18:00 +25°C° 0 mm 2 mps 664 mmHg 72%
    19:00 +24°C° 0.1 mm 2 mps 664 mmHg 77%
    20:00 +21°C° 0.1 mm 2 mps 665 mmHg 81%
    21:00 +20°C° 0.1 mm 2 mps 665 mmHg 86%
    22:00 +20°C° 0 mm 2 mps 665 mmHg 87%
    23:00 +19°C° 0 mm 2 mps 665 mmHg 89%

    21 December, Thursday

    Time Temperature Precipitation Wind Pressure Humidity
    00:00 +19°C° 0 mm 2 mps 665 mmHg 90%
    01:00 +19°C° 0 mm 2 mps 664 mmHg 91%
    02:00 +19°C° 0 mm 2 mps 664 mmHg 92%
    03:00 +18°C° 0 mm 2 mps 664 mmHg 94%
    04:00 +18°C° 0 mm 2 mps 664 mmHg 94%
    05:00 +18°C° 0 mm 2 mps 664 mmHg 95%
    06:00 +18°C° 0 mm 2 mps 664 mmHg 95%
    07:00 +20°C° 0 mm 3 mps 665 mmHg 88%
    08:00 +21°C° 0 mm 3 mps 666 mmHg 81%
    09:00 +23°C° 0 mm 4 mps 666 mmHg 74%
    10:00 +26°C° 0 mm 3 mps 666 mmHg 69%
    11:00 +27°C° 0 mm 3 mps 666 mmHg 63%
    12:00 +28°C° 0 mm 3 mps 666 mmHg 57%
    13:00 +28°C° 0 mm 3 mps 666 mmHg 56%
    14:00 +29°C° 0 mm 2 mps 665 mmHg 55%
    15:00 +29°C° 0 mm 2 mps 665 mmHg 53%
    16:00 +28°C° 0.3 mm 2 mps 665 mmHg 61%
    17:00 +26°C° 0.3 mm 2 mps 664 mmHg 68%
    18:00 +25°C° 0.3 mm 2 mps 664 mmHg 76%
    19:00 +24°C° 0.5 mm 2 mps 664 mmHg 80%
    20:00 +23°C° 0.5 mm 1 mps 664 mmHg 84%
    21:00 +21°C° 0.5 mm 1 mps 665 mmHg 88%
    22:00 +21°C° 0.6 mm 1 mps 665 mmHg 89%
    23:00 +21°C° 0.6 mm 1 mps 665 mmHg 89%
    Show more